Weather History for Pittsburg, KS

Change the Weather History Date:

Tuesday, January 3, 2012

  Actual Average (KJLN) Record (KJLN)
Temperature  
Mean Temperature 33 °F 35 °F  
Max Temperature 50 °F 44 °F 74 °F (2009)
Min Temperature 16 °F 25 °F 0 °F (1959)
Degree Days  
Heating Degree Days 32 30  
Month to date heating degree days 90  
Since 1 July heating degree days 1707  
Cooling Degree Days 0 0  
Month to date cooling degree days 0  
Year to date cooling degree days 0  
Moisture  
Dew Point 18 °F    
Average Humidity 57    
Maximum Humidity 91    
Minimum Humidity 36    
Precipitation  
Precipitation 0.00 in 0.07 in 1.52 in (1950)
Month to date precipitation 0.22  
Year to date precipitation 0.22  
Sea Level Pressure  
Sea Level Pressure 30.33 in    
Wind  
Wind Speed 7 mph (SSW)    
Max Wind Speed 21 mph    
Max Gust Speed 29 mph    
Visibility 10 miles    
Events      
T = Trace of Precipitation, MM = Missing Value Source: NWS Daily Summary

Daily Weather History Graph

Daily Weather History Graph

Search for Another Location

Airport:

Trip Planner

Search our weather history database for the weather conditions in past years. The results will help you decide how hot, cold, wet, or windy it might be!

Date:

Astronomy

Jan. 03, 2012 Rise Set
Actual Time 7:33 AM CST 5:13 PM CST
Civil Twilight 7:04 AM CST 5:42 PM CST
Nautical Twilight 6:32 AM CST 6:14 PM CST
Astronomical Twilight 6:00 AM CST 6:46 PM CST
Moon 12:59 PM CST (1/3) 2:27 AM CST (1/3)
Length of Visible Light 10h 37m
Length of Day
9h 39m
Waxing Gibbous, 73% of the Moon is Illuminated
Jan 3
Waxing Gibbous
Jan 9
Full
Jan 16
Last Quarter
Jan 23
New
Jan 30
First Quarter

Hourly Weather History & Observations

Time (CST) Temp. Windchill Dew Point Humidity Pressure Visibility Wind Dir Wind Speed Gust Speed Precip Events Conditions
12:15 AM 19.8 °F - 14.5 °F 80% 30.53 in 10.0 mi Calm Calm - N/A   Clear
12:35 AM 19.2 °F - 15.4 °F 85% 30.52 in 10.0 mi Calm Calm - N/A   Clear
12:55 AM 18.9 °F - 15.8 °F 88% 30.52 in 10.0 mi Calm Calm - N/A   Clear
1:15 AM 18.3 °F - 14.5 °F 85% 30.51 in 10.0 mi Calm Calm - N/A   Clear
1:35 AM 17.4 °F - 14.5 °F 88% 30.51 in 10.0 mi Calm Calm - N/A   Clear
1:55 AM 17.4 °F - 14.0 °F 86% 30.51 in 10.0 mi Calm Calm - N/A   Clear
2:15 AM 17.4 °F - 13.5 °F 84% 30.51 in 10.0 mi Calm Calm - N/A   Clear
2:35 AM 17.4 °F - 14.5 °F 88% 30.51 in 10.0 mi Calm Calm - N/A   Clear
2:55 AM 17.4 °F - 14.4 °F 88% 30.52 in 10.0 mi Calm Calm - N/A   Clear
3:15 AM 17.4 °F - 13.8 °F 86% 30.51 in 10.0 mi Calm Calm - N/A   Clear
3:35 AM 17.4 °F - 14.2 °F 87% 30.51 in 10.0 mi Calm Calm - N/A   Clear
4:15 AM 17.4 °F - 15.1 °F 91% 30.51 in 10.0 mi Calm Calm - N/A   Clear
4:35 AM 16.7 °F 11.2 °F 14.0 °F 89% 30.49 in 10.0 mi SE 3.5 mph - N/A   Clear
5:15 AM 18.7 °F 10.6 °F 12.6 °F 77% 30.48 in 10.0 mi South 5.8 mph - N/A   Clear
5:35 AM 20.8 °F 14.4 °F 12.0 °F 69% 30.49 in 10.0 mi SSW 4.6 mph - N/A   Clear
5:55 AM 20.8 °F 13.2 °F 11.7 °F 68% 30.48 in 10.0 mi South 5.8 mph - N/A   Clear
6:15 AM 20.5 °F 11.7 °F 11.7 °F 69% 30.47 in 10.0 mi South 6.9 mph - N/A   Clear
6:35 AM 21.4 °F 12.8 °F 12.0 °F 67% 30.46 in 10.0 mi South 6.9 mph - N/A   Clear
6:55 AM 21.9 °F 13.4 °F 12.2 °F 66% 30.45 in 10.0 mi South 6.9 mph - N/A   Clear
7:15 AM 21.6 °F 13.0 °F 11.7 °F 66% 30.45 in 10.0 mi South 6.9 mph - N/A   Clear
7:35 AM 21.6 °F 14.0 °F 11.5 °F 65% 30.44 in 10.0 mi South 5.8 mph - N/A   Clear
7:55 AM 21.4 °F 13.8 °F 12.2 °F 68% 30.44 in 10.0 mi South 5.8 mph - N/A   Clear
8:15 AM 22.6 °F 14.3 °F 13.3 °F 67% 30.43 in 10.0 mi South 6.9 mph - N/A   Clear
8:35 AM 25.7 °F 16.4 °F 14.7 °F 63% 30.42 in 10.0 mi South 9.2 mph - N/A   Clear
8:55 AM 28.2 °F 18.9 °F 14.9 °F 57% 30.42 in 10.0 mi South 10.4 mph - N/A   Clear
9:15 AM 30.2 °F 21.3 °F 15.3 °F 54% 30.42 in 10.0 mi South 10.4 mph - N/A   Clear
9:35 AM 30.7 °F 20.9 °F 14.2 °F 50% 30.42 in 10.0 mi South 12.7 mph - N/A   Clear
9:55 AM 33.3 °F 24.6 °F 15.1 °F 47% 30.41 in 10.0 mi South 11.5 mph - N/A   Clear
10:15 AM 34.9 °F 27.1 °F 14.7 °F 44% 30.39 in 10.0 mi South 10.4 mph - N/A   Clear
10:35 AM 36.3 °F 26.8 °F 14.5 °F 41% 30.38 in 10.0 mi SSW 16.1 mph 19.6 mph N/A   Clear
10:55 AM 38.1 °F 29.1 °F 14.0 °F 37% 30.37 in 10.0 mi SSW 16.1 mph 23.0 mph N/A   Clear
11:15 AM 40.1 °F 31.3 °F 15.1 °F 36% 30.36 in 10.0 mi SSW 17.3 mph - N/A   Clear
11:35 AM 40.5 °F 32.1 °F 16.0 °F 37% 30.34 in 10.0 mi SSW 16.1 mph - N/A   Clear
11:55 AM 42.4 °F 35.0 °F 17.4 °F 37% 30.31 in 10.0 mi SSW 15.0 mph - N/A   Clear
12:15 PM 43.2 °F 35.9 °F 18.3 °F 37% 30.28 in 10.0 mi SSW 15.0 mph - N/A   Clear
12:35 PM 44.1 °F 36.2 °F 19.4 °F 37% 30.26 in 10.0 mi SSW 18.4 mph 25.3 mph N/A   Clear
12:55 PM 46.4 °F 39.5 °F 21.6 °F 37% 30.24 in 10.0 mi SSW 17.3 mph 24.2 mph N/A   Clear
1:15 PM 47.5 °F - 22.5 °F 37% 30.23 in 10.0 mi SW 18.4 mph 28.8 mph N/A   Clear
1:35 PM 48.9 °F - 24.4 °F 38% 30.22 in 10.0 mi SW 20.7 mph 27.6 mph N/A   Clear
1:55 PM 50.0 °F - 24.8 °F 37% 30.20 in 10.0 mi SW 20.7 mph 28.8 mph N/A   Clear
2:15 PM 50.0 °F - 24.6 °F 37% 30.18 in 10.0 mi SSW 20.7 mph 25.3 mph N/A   Clear
2:35 PM 50.0 °F - 24.3 °F 37% 30.17 in 10.0 mi SSW 17.3 mph 25.3 mph N/A   Clear
2:55 PM 50.0 °F - 24.4 °F 37% 30.16 in 10.0 mi SSW 15.0 mph 24.2 mph N/A   Clear
3:15 PM 50.0 °F - 24.6 °F 37% 30.16 in 10.0 mi SW 15.0 mph 25.3 mph N/A   Clear
3:35 PM 50.0 °F - 24.6 °F 37% 30.14 in 10.0 mi SSW 20.7 mph 28.8 mph N/A   Clear
3:55 PM 50.0 °F - 25.0 °F 38% 30.14 in 10.0 mi SSW 20.7 mph 26.5 mph N/A   Clear
4:15 PM 50.0 °F - 25.3 °F 38% 30.13 in 10.0 mi SSW 19.6 mph 26.5 mph N/A   Clear
4:35 PM 50.0 °F - 26.1 °F 39% 30.13 in 10.0 mi SSW 17.3 mph 24.2 mph N/A   Clear
4:55 PM 50.0 °F - 26.6 °F 40% 30.12 in 10.0 mi SW 18.4 mph 27.6 mph N/A   Clear
5:15 PM 48.0 °F - 25.5 °F 41% 30.12 in 10.0 mi SSW 16.1 mph 21.9 mph N/A   Clear
5:35 PM 47.5 °F - 25.3 °F 42% 30.12 in 10.0 mi SW 15.0 mph 19.6 mph N/A   Clear
6:15 PM 44.1 °F 37.7 °F 23.7 °F 45% 30.09 in 10.0 mi SSW 12.7 mph - N/A   Clear
6:35 PM 43.7 °F 37.3 °F 23.9 °F 46% 30.10 in 10.0 mi SSW 12.7 mph - N/A   Clear
6:55 PM 43.3 °F 36.5 °F 23.7 °F 46% 30.10 in 10.0 mi SSW 13.8 mph - N/A   Clear
7:15 PM 43.0 °F 36.8 °F 23.5 °F 46% 30.11 in 10.0 mi SSW 11.5 mph - N/A   Clear
7:35 PM 42.6 °F 35.9 °F 23.5 °F 47% 30.10 in 10.0 mi SSW 12.7 mph 17.3 mph N/A   Clear
8:15 PM 42.4 °F 35.0 °F 23.4 °F 47% 30.10 in 10.0 mi SW 15.0 mph 21.9 mph N/A   Clear
8:35 PM 42.4 °F 35.0 °F 23.7 °F 48% 30.10 in 10.0 mi SW 15.0 mph 19.6 mph N/A   Clear
8:55 PM 41.9 °F 34.3 °F 23.9 °F 49% 30.10 in 10.0 mi SW 15.0 mph - N/A   Clear
9:15 PM 41.7 °F 32.9 °F 24.1 °F 50% 30.10 in 10.0 mi SW 19.6 mph 26.5 mph N/A   Clear
9:35 PM 42.4 °F 34.1 °F 24.3 °F 49% 30.10 in 10.0 mi SW 18.4 mph 24.2 mph N/A   Clear
9:55 PM 42.4 °F 34.1 °F 24.6 °F 49% 30.10 in 10.0 mi SW 18.4 mph 26.5 mph N/A   Clear
10:15 PM 42.6 °F 34.3 °F 24.8 °F 49% 30.10 in 10.0 mi SW 18.4 mph 23.0 mph N/A   Clear
10:35 PM 42.4 °F 35.7 °F 25.0 °F 50% 30.12 in 10.0 mi SW 12.7 mph - N/A   Clear
10:55 PM 42.4 °F 35.0 °F 25.3 °F 51% 30.11 in 10.0 mi SW 15.0 mph - N/A   Clear
11:15 PM 42.4 °F 34.1 °F 25.5 °F 51% 30.11 in 10.0 mi SW 18.4 mph 23.0 mph N/A   Clear
11:35 PM 42.4 °F 35.0 °F 25.9 °F 52% 30.12 in 10.0 mi SW 15.0 mph - N/A   Clear
11:55 PM 42.1 °F 35.7 °F 26.1 °F 53% 30.12 in 10.0 mi SW 11.5 mph - N/A   Clear